Torna al catalogo

BLOCK DM-SL DEB

LostHEO
NORAD 34838·DEBRIS· XX

Lanciato Apr 20, 2009 da Sea Launch Platform

Loading…

Prossimi Passaggi (prossime 24 ore)

TLE

ObsoletoSource: Space-Track

Epoca: Apr 21, 2009, 07:16 UTC

1 34838U 09020E   09111.30317163 -.00000036  00000-0  10000-3 0  9997
2 34838   0.0594 107.2180 4715582 205.2182 246.6222  1.81423006    17

Traccia BLOCK DM-SL DEB in tempo reale con AllMySat

Download on the App Store